Lid_Strength_Index
-1 -1 -1 -1 -1 -2 -1 -1 -1 -0 -1 -1 -1 -1 -1 -1 -1 -1 -1 -3 -2 -1 -1 -1 -1 -1 -1 -1 -1 -1 -1 -1 -1 -1 -1 -1 -2 -2 -2 -1 -1 -1 -1
-1 -0 -1 -1 -2 -2 -2 -2 -1 -1 -1 -1 -1 -1 -1 -1 -2 -2 -1 -1 -2 -1 -1 -1 -1 -1 -1 -1 -1 -1 -1 -1 -1 -1 -1 -2 -2 -1 -1 -1 -1 -2 -1
-2 -2 -0 -1 -1 -2 -1 -1 -1 -1 -1 -1 -0 -1 -1 -1 -1 -1 -1 -1 -1 -2 -2 -1 -1 -1 -1 -1 -1 -1 -1 -1 -1 -1 -1 -1 -1 -2 -2 -2 -2 -2 -1
-2 -1 -0 -0 -1 -2 -1 -0 -1 0 0 -0 -0 -0 -0 -0 -1 -1 -1 -1 -1 -1 -1 -2 -1 -1 -1 -1 -1 -1 -1 -1 -1 -1 -1 -1 -1 -1 -1 -2 -1 -2 -1
-2 -1 -0 -0 -2 -0 -0 -1 0 0 1 -0 0 -0 -0 -1 -1 -1 -1 -1 -1 -1 -1 -2 -2 -2 -1 -1 -1 -1 -1 -1 -1 -1 -1 -1 -1 -1 -2 -1 -1 -1 -1
-2 -1 -1 -1 -1 0 0 -0 -0 0 -0 0 1 1 -0 -0 -1 -0 -0 -1 -1 -2 -1 -1 -2 -1 -2 -2 -1 -1 -1 -1 -1 -1 -1 -1 -2 -1 -1 -2 -1 -1 -1
-1 -2 -1 -1 -1 -1 -1 -1 -0 0 1 -1 1 1 1 -0 -0 0 -0 -0 -0 -1 -1 -2 -1 -1 -1 -2 -2 -1 -1 -1 -1 -1 -1 -1 -1 -1 -1 -1 -1 -1 -2
-2 -1 -1 -1 -2 -0 -1 -1 -0 1 0 -1 2 2 4 2 1 0 0 0 -1 -1 -1 -1 -1 -2 -1 -1 -2 -1 -1 -1 -1 -1 -1 -1 -1 -1 -1 -2 -2 -1 -1
-1 -2 -1 -1 -1 -1 0 -0 -0 0 2 0 0 3 5 6 3 1 0 0 -0 0 -1 -1 -1 -2 -2 -1 -1 -1 -1 -1 -1 -1 -1 -1 -1 -1 -1 -1 -1 -1 -1
-1 -1 -1 -1 -1 -1 -0 -1 -0 -0 0 2 1 0 0 1 5 5 1 1 -0 0 0 -0 -1 -1 -2 -1 -2 -2 -1 -1 -1 -1 -1 -1 -1 -1 -1 -1 -1 -1 -1
-1 -1 -2 -1 -1 -0 -1 -1 -1 -0 0 1 1 2 1 1 1 3 5 3 1 0 -0 -0 -1 -1 -1 -1 -1 -1 -1 -1 -1 -1 -1 -1 -1 -1 -1 -1 -1 -1 -1
0 -1 -1 -1 -1 -1 -1 -1 -1 -1 -0 0 1 1 2 2 3 3 4 3 2 2 0 -0 -0 -1 -1 -1 -1 -1 -1 -1 -1 -1 -1 -1 -1 -1 -1 -1 -1 -1 -1
1 0 -1 -1 -0 -1 -1 -1 -1 -1 -0 0 -0 1 1 1 0 1 2 4 3 2 2 0 -0 -1 -1 -1 -1 -1 -1 -1 -1 -0 -0 -1 -1 -1 -1 -1 -1 -1 -1
-0 -1 -1 -1 -1 -1 -1 -1 -0 -0 -0 -0 -0 0 1 1 0 0 1 3 3 3 2 1 0 -0 -1 -1 -1 -2 -0 -0 -0 0 0 0 0 -0 -1 -1 -1 -1 -1
-0 -1 -1 -1 -1 -1 -1 -1 -0 -0 -1 -0 -0 -0 0 0 -0 -0 0 1 2 4 4 2 1 -1 -1 -1 -1 -1 -1 1 0 0 0 1 1 1 1 1 0 -1 -1
-1 -1 -1 -1 -0 -1 -1 -1 -0 -1 -0 -0 0 -0 0 0 -0 -0 0 0 1 3 4 1 1 -0 -0 -1 -1 -1 -0 0 1 1 1 1 0 1 1 1 1 1 -0
-1 -1 -1 -1 -0 -0 -1 -1 -0 -0 -0 -0 -0 -0 0 -0 0 0 0 0 1 1 3 2 1 -0 -0 -0 -1 -1 -1 -1 1 2 2 3 2 2 1 1 2 2 2
-1 -0 -1 -0 -0 -0 -0 -0 0 -0 0 0 0 0 0 0 -0 0 0 -0 1 1 1 2 1 1 0 -0 -0 -0 -0 -0 2 3 3 3 4 4 4 3 3 2 2
-0 -0 -0 0 -0 -0 -0 -0 -0 0 0 0 0 0 0 0 0 1 0 0 0 0 0 2 2 -0 1 0 0 1 1 2 2 3 3 4 4 4 4 4 4 4 4
-0 -0 -0 -0 -0 -0 -0 -0 -0 0 -0 0 -0 -0 -0 0 0 0 1 1 0 1 0 1 1 1 1 0 2 3 3 2 2 3 4 4 3 4 4 4 4 5 6
-0 -0 -0 -0 -0 0 0 0 0 0 0 0 -0 -0 -0 0 0 0 1 0 0 1 1 2 2 2 2 2 2 2 3 3 3 3 4 3 3 3 4 4 5 5 6
-0 -0 0 0 0 0 2 2 1 1 0 0 1 0 -0 0 0 1 1 1 0 1 2 2 1 2 2 2 1 2 3 4 5 4 6 6 5 6 6 5 5 6 6
0 0 0 0 1 0 3 4 2 0 1 0 0 0 0 0 0 -0 2 2 1 2 1 0 2 2 1 1 1 2 3 3 3 5 6 8 5 7 6 6 6 6 7
1 1 1 0 1 0 3 5 4 0 0 0 0 0 0 0 -0 0 0 1 0 0 0 0 0 0 -0 -1 0 0 1 5 6 6 6 9 7 8 6 6 7 7 7
1 1 1 1 1 1 5 6 4 0 1 1 0 0 0 0 2 4 1 1 1 0 4 5 5 4 3 2 1 2 5 6 7 7 7 8 8 8 8 8 7 7 8
1 1 1 1 2 1 6 7 4 1 1 1 0 0 3 1 5 6 1 1 2 1 1 0 -0 2 1 1 3 -0 2 3 6 8 7 8 9 9 10 8 8 8 9